Find Starlink 31034

NORAD ID: 58785 Int'l Des: 2024-011 Owner: SPXS Country: US Constellation: starlink operational
LEOCIRCULAR

实时位置

正在加载3D地球...

关于 Starlink 31034

正在加载描述...

即将过境

Passes for default location (London). Set your location on the main map for personalized predictions.

高度历史

Loading altitude history...

两行轨道根数

1 58785U 24011W 26122.96741931 -.00001498 00000-0 -33234-4 0 9997
2 58785 53.1613 19.0049 0001289 70.6882 289.4260 15.34367465130041
Epoch: May 2, 2026 • Age: 17 hours

当前状态

高度 481.4 km
速度 7.62 km/s
星下点 -51.55°S, 156.75°W
发射日期 Jan 14, 2024
运行时间 2.2 years
类型 internet

技术详情

分类 Payload
质量 730.00 kg
干质量 700.00 kg
总质量 730.00 kg
长度 0.30 m
直径 4.10 m
跨度 29.00 m
形状 Box + pan
制造商 SPXS
平台类型 Starlink V2M
阶段状态 In Orbit
所有者/国家 SPXS/US

Most Searched